This demonstration page uses our WeatherBlox Daily Observations layout. Learn more.

Left ArrowRight Arrow

Hourly Observations for April 2, 2023

Temp ( °F °C ) Dew Point ( °F °C ) Humidity (%) Winds ( mph kmh ) Pressure ( in mb ) Visibility ( mi km ) Precip ( " mm )
12:53 am 00:53 Clear 32 0 25 -3.9 75 75 SW 20 31 29.59 1002 10 16 0.00 0.00
1:53 am 01:53 Clear 32 0 25 -3.9 75 75 SW 23 37 29.57 1001 10 16 0.00 0.00
2:53 am 02:53 Partly Cloudy 32 0 24 -4.4 72 72 SW 22 35 29.57 1001 10 16 0.00 0.00
3:53 am 03:53 Cloudy 32 0 24 -4.4 72 72 SW 24 39 29.57 1001 10 16 0.00 0.00
4:53 am 04:53 Cloudy 33 0.6 23 -5 66 66 SW 25 41 29.57 1002 10 16 0.00 0.00
5:16 am 05:16 Windy with Snow Likely 32 0 25 -3.9 75 75 W 23 37 29.64 1004 6 10 0.01 0.13
5:30 am 05:30 Windy with Snow Likely 31 -0.6 28 -2.2 89 89 W 23 37 29.64 1004 1 1 0.01 0.13
5:37 am 05:37 Windy with Snow Likely 31 -0.6 29 -1.7 92 92 W 26 43 29.64 1004 1 1 0.01 0.13
5:53 am 05:53 Windy with Snow Likely 31 -0.6 28 -2.2 89 89 W 31 50 29.60 1002 1 2 0.01 0.25
6:03 am 06:03 Windy with Snow Likely 31 -0.6 28 -2.2 89 89 W 29 46 29.64 1004 1 1 0.01 0.13
6:10 am 06:10 Windy with Snow Likely 31 -0.6 28 -2.2 89 89 W 31 50 29.64 1004 1 1 0.01 0.13
6:23 am 06:23 Windy with Snow Likely 31 -0.6 29 -1.7 92 92 W 33 54 29.64 1004 1 2 0.01 0.13
6:30 am 06:30 Windy with Snow Likely 31 -0.6 28 -2.2 89 89 W 30 48 29.64 1004 2 2 0.01 0.25
6:39 am 06:39 Windy with Snow Likely 31 -0.6 28 -2.2 89 89 W 29 46 29.64 1004 3 5 0.01 0.25
6:53 am 06:53 Windy with Snow Likely 32 0 28 -2.2 85 85 W 30 48 29.60 1003 9 14 0.01 0.25
7:53 am 07:53 Cloudy 33 0.6 26 -3.3 75 75 W 24 39 29.63 1004 10 16 0.01 0.13
8:09 am 08:09 Windy with Snow Likely 33 0.6 26 -3.3 75 75 WNW 22 35 29.67 1005 5 8 0.01 0.13
8:44 am 08:44 Windy with Snow Likely 32 0 26 -3.3 78 78 WNW 29 46 29.69 1005 4 6 0.01 0.13
8:53 am 08:53 Cloudy 32 0 26 -3.3 78 78 W 25 41 29.66 1004 9 14 0.01 0.13
9:53 am 09:53 Windy with Snow Likely 33 0.6 26 -3.3 75 75 W 30 48 29.67 1005 4 6 0.01 0.13
10:01 am 10:01 Windy with Snow Likely 32 0 26 -3.3 78 78 W 32 52 29.71 1006 2 3 0.01 0.13
10:09 am 10:09 Windy with Snow Likely 32 0 26 -3.3 78 78 W 31 50 29.71 1006 7 11 0.01 0.13
10:31 am 10:31 Windy with Snow Likely 32 0 27 -2.8 81 81 W 26 43 29.72 1006 3 4 0.01 0.13
10:45 am 10:45 Windy with Snow Likely 33 0.6 27 -2.8 78 78 W 28 44 29.71 1006 9 14 0.01 0.13
10:53 am 10:53 Cloudy 33 0.6 27 -2.8 78 78 W 25 41 29.69 1005 9 14 0.01 0.13
11:53 am 11:53 Cloudy 33 0.6 28 -2.2 81 81 W 24 39 29.71 1006 9 14 0.01 0.13
12:53 pm 12:53 Cloudy 34 1.1 28 -2.2 79 79 W 25 41 29.71 1006 10 16 0.00 0.00
1:35 pm 13:35 Cloudy 35 1.7 28 -2.2 75 75 W 25 41 29.73 1007 10 16 0.00 0.00
1:53 pm 13:53 Cloudy 35 1.7 28 -2.2 75 75 WNW 23 37 29.72 1006 10 16 0.00 0.00
2:53 pm 14:53 Cloudy 35 1.7 27 -2.8 72 72 WNW 30 48 29.74 1007 10 16 0.00 0.00
3:22 pm 15:22 Cloudy 35 1.7 28 -2.2 75 75 WNW 20 31 29.76 1008 10 16 0.00 0.00
3:53 pm 15:53 Cloudy 34 1.1 28 -2.2 79 79 WNW 20 31 29.76 1008 10 16 0.00 0.00
4:13 pm 16:13 Cloudy 34 1.1 28 -2.2 79 79 WNW 21 33 29.78 1008 10 16 0.00 0.00
4:53 pm 16:53 Cloudy 34 1.1 29 -1.7 82 82 WNW 21 33 29.77 1008 10 16 0.00 0.00
5:29 pm 17:29 Cloudy with Light Snow 33 0.6 29 -1.7 85 85 NW 12 19 29.81 1010 2 3 0.01 0.13
5:32 pm 17:32 Cloudy with Light Snow 33 0.6 29 -1.7 85 85 NW 13 20 29.81 1010 1 2 0.01 0.13
5:42 pm 17:42 Cloudy with Light Snow 32 0 30 -1.1 92 92 NW 9 15 29.83 1010 1 1 0.01 0.25
5:53 pm 17:53 Cloudy with Light Snow 32 0 30 -1.1 92 92 WNW 9 15 29.80 1009 1 2 0.01 0.25
6:00 pm 18:00 Cloudy with Light Snow 32 0 29 -1.7 88 88 WNW 9 15 29.83 1010 2 3 0.01 0.25
6:21 pm 18:21 Cloudy with Light Snow 33 0.6 29 -1.7 85 85 NW 8 13 29.83 1010 4 6 0.01 0.25
6:45 pm 18:45 Cloudy 33 0.6 28 -2.2 81 81 WNW 7 11 29.83 1010 7 11 0.01 0.25
6:53 pm 18:53 Cloudy with Light Snow 33 0.6 29 -1.7 85 85 WNW 8 13 29.81 1009 4 6 0.01 0.25
7:17 pm 19:17 Cloudy 32 0 29 -1.7 88 88 WNW 5 7 29.84 1010 7 11 0.01 0.13
7:53 pm 19:53 Cloudy 32 0 30 -1.1 92 92 SW 7 11 29.81 1010 7 11 0.01 0.13
8:33 pm 20:33 Cloudy with Light Snow 32 0 31 -0.6 96 96 SW 7 11 29.85 1011 2 3 0.01 0.13
8:48 pm 20:48 Cloudy with Light Snow 32 0 30 -1 93 93 SW 8 13 29.85 1011 3 5 0.01 0.13
8:53 pm 20:53 Cloudy with Light Snow 32 0 30 -1.1 92 92 WSW 7 11 29.83 1010 3 5 0.01 0.13
9:35 pm 21:35 Cloudy with Light Snow 32 0 30 -1.1 92 92 W 9 15 29.87 1011 3 4 0.01 0.13
9:46 pm 21:46 Cloudy with Light Snow 32 0 30 -1.1 92 92 W 8 13 29.87 1011 4 6 0.01 0.13
9:53 pm 21:53 Cloudy with Light Snow 32 0 30 -1.1 92 92 W 8 13 29.83 1010 4 6 0.01 0.13
10:05 pm 22:05 Cloudy with Light Snow 32 0 30 -1.1 92 92 WNW 7 11 29.86 1011 3 4 0.01 0.13
10:17 pm 22:17 Cloudy with Light Snow 32 0 30 -1.1 92 92 NW 6 9 29.86 1011 3 5 0.01 0.25
10:24 pm 22:24 Cloudy with Light Snow 32 0 30 -1.1 92 92 NW 6 9 29.86 1011 4 6 0.01 0.25
10:41 pm 22:41 Cloudy with Light Snow 32 0 31 -0.6 96 96 N 5 7 29.86 1011 3 4 0.01 0.25
10:49 pm 22:49 Cloudy with Light Snow 30 -1 30 -1 100 100 N 5 7 29.87 1012 4 6 0.01 0.25
10:53 pm 22:53 Cloudy with Mist and Fog 31 -0.6 30 -1.1 96 96 NNW 3 6 29.83 1010 4 6 0.01 0.25
11:34 pm 23:34 Cloudy 30 -1.1 27 -2.8 88 88 N 5 7 29.87 1012 10 16 0.00 0.00
11:53 pm 23:53 Partly Cloudy 29 -1.7 26 -3.3 89 89 NNE 5 7 29.83 1010 10 16 0.00 0.00

Powered by AerisWeather